When you browse on this site, cookies collect data to enhance your experience and personalize the content and advertising you see.
Visit our Privacy Policy to learn more. By continuing to use the site, you agree to this use of cookies and data.
  • En España
  • Lista de países
  • Para 7 días
  • Temperatura del agua
  • El tiempo en el mapa
  • Informadores
  • user-avatar
    Iniciar sesión

    Tiempo cada hora Wrexham

    Hoy, 20 Febrero, Jueves

    Tiempo Temperatura Precipitaciones Viento Presión Humedad
    00:00 +8°C° 0 mm 5 mps 746 mmHg 92%
    01:00 +8°C° 0.1 mm 5 mps 746 mmHg 91%
    02:00 +7°C° 0.1 mm 6 mps 745 mmHg 90%
    03:00 +7°C° 0.1 mm 6 mps 744 mmHg 89%
    04:00 +7°C° 0.1 mm 6 mps 744 mmHg 88%
    05:00 +7°C° 0.1 mm 6 mps 743 mmHg 88%
    06:00 +6°C° 0.1 mm 7 mps 742 mmHg 87%
    07:00 +6°C° 0.7 mm 7 mps 742 mmHg 88%
    08:00 +6°C° 0.7 mm 7 mps 742 mmHg 90%
    09:00 +8°C° 0.7 mm 7 mps 741 mmHg 91%
    10:00 +5°C° 1.2 mm 7 mps 742 mmHg 90%
    11:00 +2°C° 1.2 mm 8 mps 743 mmHg 90%
    12:00 +1°C° 1.2 mm 8 mps 744 mmHg 89%
    13:00 +1°C° 0.3 mm 8 mps 746 mmHg 82%
    14:00 +1°C° 0.3 mm 9 mps 747 mmHg 75%
    15:00 +1°C° 0.3 mm 9 mps 748 mmHg 67%
    16:00 +1°C° 0 mm 8 mps 749 mmHg 69%
    17:00 0°C° 0 mm 7 mps 750 mmHg 71%
    18:00 +1°C° 0 mm 6 mps 751 mmHg 74%
    19:00 -1°C° 0 mm 6 mps 752 mmHg 75%
    20:00 -1°C° 0 mm 6 mps 753 mmHg 76%
    21:00 -1°C° 0 mm 6 mps 754 mmHg 77%
    22:00 -1°C° 0 mm 6 mps 755 mmHg 78%
    23:00 0°C° 0 mm 5 mps 755 mmHg 79%

    Mañana, 21 Febrero, Viernes

    Tiempo Temperatura Precipitaciones Viento Presión Humedad
    00:00 +1°C° 0 mm 5 mps 756 mmHg 80%
    01:00 +1°C° 0 mm 5 mps 756 mmHg 81%
    02:00 +1°C° 0 mm 5 mps 756 mmHg 82%
    03:00 +1°C° 0 mm 5 mps 756 mmHg 83%
    04:00 +2°C° 0 mm 5 mps 756 mmHg 83%
    05:00 +2°C° 0 mm 5 mps 755 mmHg 83%
    06:00 +2°C° 0 mm 5 mps 755 mmHg 83%
    13:00 +6°C° 0.2 mm 9 mps 753 mmHg 80%
    14:00 +6°C° 0.2 mm 9 mps 752 mmHg 80%
    15:00 +7°C° 0.2 mm 9 mps 752 mmHg 81%
    16:00 +7°C° 0.1 mm 9 mps 752 mmHg 82%
    17:00 +7°C° 0.1 mm 9 mps 751 mmHg 82%
    18:00 +7°C° 0.1 mm 8 mps 751 mmHg 82%
    19:00 +7°C° 0.3 mm 9 mps 750 mmHg 83%
    20:00 +7°C° 0.3 mm 9 mps 750 mmHg 84%
    21:00 +7°C° 0.3 mm 9 mps 749 mmHg 86%
    22:00 +8°C° 0.6 mm 9 mps 749 mmHg 86%
    23:00 +8°C° 0.6 mm 10 mps 749 mmHg 87%

    Pasado mañana, 22 Febrero, Sábado

    Tiempo Temperatura Precipitaciones Viento Presión Humedad
    00:00 +8°C° 0.6 mm 10 mps 748 mmHg 87%
    01:00 +8°C° 0.8 mm 10 mps 748 mmHg 87%
    02:00 +8°C° 0.8 mm 9 mps 748 mmHg 87%
    03:00 +8°C° 0.8 mm 9 mps 747 mmHg 87%
    04:00 +8°C° 0.2 mm 9 mps 747 mmHg 85%
    05:00 +8°C° 0.2 mm 10 mps 748 mmHg 82%
    06:00 +7°C° 0.2 mm 10 mps 748 mmHg 79%
    07:00 +6°C° 0.1 mm 10 mps 748 mmHg 79%
    08:00 +6°C° 0.1 mm 10 mps 749 mmHg 79%
    09:00 +5°C° 0.1 mm 10 mps 749 mmHg 79%
    10:00 +5°C° 0.1 mm 10 mps 750 mmHg 77%
    11:00 +5°C° 0.1 mm 10 mps 751 mmHg 74%
    12:00 +5°C° 0.1 mm 10 mps 752 mmHg 72%
    13:00 +5°C° 0.1 mm 10 mps 752 mmHg 73%
    14:00 +5°C° 0.1 mm 10 mps 752 mmHg 73%
    15:00 +3°C° 0.1 mm 10 mps 752 mmHg 74%
    16:00 +3°C° 0.1 mm 9 mps 752 mmHg 76%
    17:00 +2°C° 0.1 mm 8 mps 753 mmHg 78%
    18:00 +3°C° 0.1 mm 7 mps 753 mmHg 80%
    19:00 +3°C° 0.1 mm 7 mps 754 mmHg 81%
    20:00 +2°C° 0.1 mm 6 mps 754 mmHg 83%
    21:00 +2°C° 0.1 mm 6 mps 755 mmHg 85%
    22:00 +2°C° 0 mm 6 mps 755 mmHg 84%
    23:00 +2°C° 0 mm 5 mps 755 mmHg 84%

    23 Febrero, Domingo

    Tiempo Temperatura Precipitaciones Viento Presión Humedad
    00:00 +2°C° 0 mm 5 mps 756 mmHg 83%
    01:00 +2°C° 0.1 mm 5 mps 755 mmHg 84%
    02:00 +2°C° 0.1 mm 5 mps 755 mmHg 86%
    03:00 +3°C° 0.1 mm 5 mps 755 mmHg 87%
    04:00 +3°C° 0.7 mm 4 mps 754 mmHg 90%
    05:00 +3°C° 0.7 mm 3 mps 754 mmHg 92%
    06:00 +4°C° 0.7 mm 2 mps 753 mmHg 95%
    07:00 +5°C° 1.4 mm 2 mps 753 mmHg 95%
    08:00 +6°C° 1.4 mm 1 mps 753 mmHg 95%
    09:00 +6°C° 1.4 mm 1 mps 752 mmHg 96%
    10:00 +5°C° 0.4 mm 2 mps 753 mmHg 95%
    11:00 +4°C° 0.4 mm 4 mps 754 mmHg 93%
    12:00 +3°C° 0.4 mm 5 mps 754 mmHg 92%
    13:00 +3°C° 0.1 mm 5 mps 755 mmHg 89%
    14:00 +4°C° 0.1 mm 4 mps 756 mmHg 85%
    15:00 +4°C° 0.1 mm 4 mps 757 mmHg 82%
    16:00 +3°C° 0 mm 3 mps 757 mmHg 84%
    17:00 +3°C° 0 mm 2 mps 758 mmHg 86%
    18:00 +3°C° 0 mm 1 mps 758 mmHg 89%
    19:00 +3°C° 0 mm 1 mps 759 mmHg 89%
    20:00 +3°C° 0 mm 1 mps 759 mmHg 89%
    21:00 +3°C° 0 mm 1 mps 759 mmHg 89%
    22:00 +2°C° 0 mm 2 mps 759 mmHg 89%
    23:00 +2°C° 0 mm 3 mps 758 mmHg 89%

    24 Febrero, Lunes

    Tiempo Temperatura Precipitaciones Viento Presión Humedad
    00:00 +2°C° 0 mm 3 mps 758 mmHg 88%
    01:00 +2°C° 0.1 mm 5 mps 756 mmHg 89%
    02:00 +2°C° 0.1 mm 6 mps 754 mmHg 90%
    03:00 +2°C° 0.1 mm 7 mps 753 mmHg 91%
    04:00 +4°C° 0.1 mm 7 mps 751 mmHg 91%
    05:00 +6°C° 0.1 mm 7 mps 750 mmHg 91%
    06:00 +8°C° 0.1 mm 7 mps 748 mmHg 90%
    07:00 +9°C° 0.7 mm 8 mps 747 mmHg 90%
    08:00 +9°C° 0.7 mm 8 mps 746 mmHg 90%
    09:00 +9°C° 0.7 mm 8 mps 745 mmHg 90%
    10:00 +10°C° 0.8 mm 9 mps 745 mmHg 88%
    11:00 +9°C° 0.8 mm 10 mps 744 mmHg 85%
    12:00 +9°C° 0.8 mm 11 mps 744 mmHg 83%
    13:00 +8°C° 0 mm 11 mps 745 mmHg 79%
    14:00 +7°C° 0 mm 11 mps 745 mmHg 74%
    15:00 +6°C° 0 mm 11 mps 746 mmHg 70%
    16:00 +5°C° 0 mm 9 mps 746 mmHg 70%
    17:00 +5°C° 0 mm 8 mps 747 mmHg 71%
    18:00 +4°C° 0 mm 7 mps 747 mmHg 72%
    19:00 +3°C° 0 mm 7 mps 748 mmHg 72%
    20:00 +3°C° 0 mm 6 mps 748 mmHg 73%
    21:00 +2°C° 0 mm 5 mps 749 mmHg 73%
    22:00 +2°C° 0 mm 5 mps 749 mmHg 74%
    23:00 +2°C° 0 mm 5 mps 749 mmHg 75%

    25 Febrero, Martes

    Tiempo Temperatura Precipitaciones Viento Presión Humedad
    00:00 +2°C° 0 mm 5 mps 749 mmHg 77%
    01:00 +1°C° 0 mm 5 mps 749 mmHg 77%
    02:00 +1°C° 0 mm 5 mps 749 mmHg 78%
    03:00 +1°C° 0 mm 5 mps 749 mmHg 79%
    04:00 +1°C° 0 mm 4 mps 749 mmHg 79%
    05:00 0°C° 0 mm 4 mps 749 mmHg 80%
    06:00 0°C° 0 mm 4 mps 749 mmHg 80%
    07:00 +1°C° 0 mm 4 mps 748 mmHg 78%
    08:00 +1°C° 0 mm 4 mps 748 mmHg 76%
    09:00 +3°C° 0 mm 4 mps 747 mmHg 74%
    10:00 +3°C° 0 mm 5 mps 747 mmHg 71%
    11:00 +4°C° 0 mm 6 mps 746 mmHg 68%
    12:00 +5°C° 0 mm 7 mps 745 mmHg 65%
    13:00 +5°C° 0.1 mm 7 mps 744 mmHg 69%
    14:00 +5°C° 0.1 mm 8 mps 743 mmHg 73%
    15:00 +5°C° 0.1 mm 8 mps 742 mmHg 77%
    16:00 +4°C° 0 mm 7 mps 742 mmHg 78%
    17:00 +3°C° 0 mm 6 mps 741 mmHg 79%
    18:00 +3°C° 0 mm 5 mps 740 mmHg 80%
    19:00 +2°C° 0.2 mm 5 mps 740 mmHg 82%
    20:00 +2°C° 0.2 mm 6 mps 739 mmHg 84%
    21:00 +2°C° 0.2 mm 7 mps 739 mmHg 86%
    22:00 0°C° 0.1 mm 7 mps 739 mmHg 82%
    23:00 -1°C° 0.1 mm 7 mps 738 mmHg 79%
    Mostrar más